Location: Newark
(25.5428°S, 54.5819°W)
Time: 23:56:51
(UTC+00:00)

Envisat - Pass Details

Date: 27 July 2019
Orbit: 764 x 766 km, 98.1° (Epoch: 23 August)

Event Time Altitude Azimuth Distance (km) Brightness Sun altitude
Exits shadow 23:06:40 - 182° (S) 2,449 5.5 -26.0°
Reaches altitude 10° 23:06:59 10° 183° (S) 2,325 5.4 -26.1°
Maximum altitude 23:11:50 44° 254° (WSW) 1,056 4.0 -27.2°
Drops below altitude 10° 23:16:38 10° 325° (NW) 2,300 6.0 -28.3°
Sets 23:19:01 0° 332° (NNW) 3,219 6.7 -28.8°
